TimeHST,TemperatureF,Dew PointF,Humidity,Sea Level PressureIn,VisibilityMPH,Wind Direction,Wind SpeedMPH,Gust SpeedMPH,PrecipitationIn,Events,Conditions,WindDirDegrees,DateUTC
12:22 AM,69.8,66.2,88,30.02,6.0,WSW,6.9,-,0.00,Rain,Light Rain,240,2012-11-21 10:22:00
12:53 AM,69.1,66.9,93,30.02,10.0,West,5.8,-,0.00,,Overcast,260,2012-11-21 10:53:00
1:53 AM,69.1,66.9,93,30.01,10.0,WSW,3.5,-,N/A,,Overcast,250,2012-11-21 11:53:00
2:22 AM,69.8,66.2,88,30.00,10.0,Calm,Calm,-,N/A,,Overcast,0,2012-11-21 12:22:00
2:53 AM,69.1,66.9,93,29.99,9.0,West,6.9,-,N/A,,Overcast,260,2012-11-21 12:53:00
3:06 AM,69.8,66.2,88,29.99,10.0,WSW,6.9,-,N/A,,Overcast,250,2012-11-21 13:06:00
3:53 AM,69.1,66.9,93,29.98,10.0,WSW,6.9,-,N/A,,Overcast,240,2012-11-21 13:53:00
4:37 AM,69.8,66.2,88,29.98,10.0,WSW,5.8,-,N/A,,Overcast,240,2012-11-21 14:37:00
4:53 AM,69.1,66.0,90,29.99,10.0,SW,4.6,-,N/A,,Overcast,230,2012-11-21 14:53:00
5:53 AM,69.1,66.0,90,30.00,10.0,West,5.8,-,N/A,,Overcast,280,2012-11-21 15:53:00
6:53 AM,69.1,66.9,93,30.01,10.0,WSW,3.5,-,N/A,,Overcast,240,2012-11-21 16:53:00
7:14 AM,69.8,66.2,88,30.01,10.0,Calm,Calm,-,N/A,,Overcast,0,2012-11-21 17:14:00
7:53 AM,70.0,66.9,90,30.02,8.0,Calm,Calm,-,N/A,,Overcast,0,2012-11-21 17:53:00
8:25 AM,71.6,66.2,83,30.03,10.0,West,3.5,-,N/A,,Overcast,270,2012-11-21 18:25:00
8:53 AM,73.0,68.0,84,30.03,10.0,WSW,3.5,-,N/A,,Overcast,250,2012-11-21 18:53:00
9:53 AM,75.0,66.9,76,30.03,10.0,Calm,Calm,-,N/A,,Overcast,0,2012-11-21 19:53:00
10:00 AM,75.2,66.2,73,30.03,10.0,Calm,Calm,-,N/A,,Overcast,0,2012-11-21 20:00:00
10:36 AM,77.0,66.2,69,30.01,10.0,Calm,Calm,-,N/A,,Overcast,0,2012-11-21 20:36:00
10:53 AM,77.0,66.9,71,30.00,10.0,Calm,Calm,-,N/A,,Overcast,0,2012-11-21 20:53:00
11:53 AM,79.0,66.9,66,29.97,10.0,ESE,3.5,-,N/A,,Mostly Cloudy,120,2012-11-21 21:53:00
12:53 PM,75.9,68.0,76,29.94,10.0,ESE,6.9,-,N/A,,Overcast,110,2012-11-21 22:53:00
1:53 PM,75.9,68.0,76,29.92,10.0,SE,5.8,-,0.00,Rain,Light Rain,140,2012-11-21 23:53:00
2:53 PM,75.9,68.0,76,29.92,10.0,SE,5.8,-,0.00,,Overcast,130,2012-11-22 00:53:00
3:53 PM,75.0,69.1,82,29.92,10.0,SSE,4.6,-,N/A,,Overcast,160,2012-11-22 01:53:00
4:23 PM,75.2,68.0,78,29.93,10.0,South,4.6,-,N/A,,Overcast,180,2012-11-22 02:23:00
4:53 PM,73.9,68.0,82,29.94,10.0,SW,3.5,-,N/A,,Mostly Cloudy,220,2012-11-22 02:53:00
5:53 PM,73.9,68.0,82,29.95,10.0,WSW,4.6,-,N/A,,Overcast,240,2012-11-22 03:53:00
6:33 PM,73.4,68.0,83,29.97,10.0,Calm,Calm,-,N/A,,Overcast,0,2012-11-22 04:33:00
6:53 PM,73.0,69.1,87,29.98,7.0,Calm,Calm,-,0.00,Rain,Light Rain,0,2012-11-22 04:53:00
7:03 PM,71.6,68.0,88,29.99,8.0,Calm,Calm,-,0.01,Rain,Light Rain,0,2012-11-22 05:03:00
7:53 PM,72.0,68.0,87,30.00,10.0,WSW,6.9,-,0.01,,Overcast,250,2012-11-22 05:53:00
8:53 PM,72.0,68.0,87,30.00,10.0,SW,4.6,-,N/A,,Mostly Cloudy,220,2012-11-22 06:53:00
9:18 PM,71.6,66.2,83,30.00,10.0,SW,3.5,-,N/A,,Overcast,220,2012-11-22 07:18:00
9:44 PM,71.6,66.2,83,30.00,10.0,Calm,Calm,-,N/A,,Overcast,0,2012-11-22 07:44:00
9:53 PM,72.0,66.9,84,29.99,10.0,SSW,3.5,-,N/A,,Mostly Cloudy,200,2012-11-22 07:53:00
10:53 PM,71.1,66.9,87,29.99,10.0,South,5.8,-,N/A,,Mostly Cloudy,190,2012-11-22 08:53:00
11:23 PM,71.6,66.2,83,29.98,10.0,South,4.6,-,N/A,,Overcast,190,2012-11-22 09:23:00
11:53 PM,71.1,68.0,90,29.98,10.0,SE,5.8,-,N/A,,Overcast,140,2012-11-22 09:53:00